Regional Weather Roundup
Issued by NWS

Home | Current Version | Previous Version | Graphics & Text | Print | Product List | Glossary On
Versions: 1 2 3 4 5 6 7 8 9 10 11 12 13 14 15 16 17 18 19 20 21 22 23 24 25 26 27 28 29 30 31 32 33 34 35 36 37 38 39 40 41 42 43 44 45 46 47 48 49 50
000
ASUS43 KLOT 251110
RWRIL

ILLINOIS REGIONAL WEATHER ROUNDUP
NATIONAL WEATHER SERVICE CHICAGO/ROMEOVILLE IL
500 AM CST SUN JAN 25 2015

NOTE: "FAIR" INDICATES FEW OR NO CLOUDS BELOW 12,000 FEET WITH NO
SIGNIFICANT WEATHER AND/OR OBSTRUCTIONS TO VISIBILITY.

* THESE STATIONS ARE NOT UNDER NWS QUALITY CONTROL. THEY ALSO MAY NOT
  REPORT WEATHER SUCH AS PRECIPITATION OR FOG.

ILZ001-002-007-009-015-016-024-251200-
NORTHWEST ILLINOIS

CITY           SKY/WX    TMP DP  RH WIND       PRES   REMARKS
MOLINE         MIX PCPN  35  32  88 E12       29.60R WCI  27
STERLING*      CLOUDY    34  30  86 E17       29.64R WCI  23
SAVANNA*       CLOUDY    34  32  90 NE15G22   29.65R WCI  25
$$

ILZ003-004-008-010-011-017-018-251200-
NORTH CENTRAL ILLINOIS

CITY           SKY/WX    TMP DP  RH WIND       PRES   REMARKS
ROCKFORD       CLOUDY    32  28  85 NE25G33   29.69S WCI  19
FREEPORT*      CLOUDY    31  29  93 E21G26    29.69R WCI  19
ROCHELLE*      CLOUDY    32  32  99 NE20      29.66S FOG     WCI  20
DE KALB*       CLOUDY    31  30  97 NE18G26   29.67S FOG     WCI  19
PERU*          CLOUDY    34  33  96 E12       29.65R FOG     WCI  26
$$

ILZ005-006-012>014-019>023-251200-
NORTHEAST ILLINOIS

CITY           SKY/WX    TMP DP  RH WIND       PRES   REMARKS
CHICAGO-OHARE  CLOUDY    34  32  92 NE14      29.70R WCI  25
CHICAGO-MIDWAY CLOUDY    36  33  89 NE7       29.70R WCI  30
AURORA         CLOUDY    34  30  85 NE18G24   29.67S FOG     WCI  23
LANSING*       CLOUDY    34  32  94 NE8       29.69S FOG     WCI  27
JOLIET*        CLOUDY    32  31  95 NE12G20   29.67S FOG     WCI  23
WAUKEGAN       FLURRIES  31  28  89 N15G26    29.72R WCI  20
DUPAGE AIRPORT CLOUDY    33  32  96 NE12      29.68R WCI  24
KANKAKEE*      CLOUDY    32  32  99 NE7       29.65S FOG     WCI  26
WHEELING       CLOUDY    33  31  92 NE12      29.73R WCI  24
MORRIS*        CLOUDY    33  32  96 NE8       29.65S FOG     WCI  26
ROMEOVILLE*    CLOUDY    33  32  96 E13       29.67S FOG     WCI  24
NORTHERLY ISL    N/A     33  32  96 MISG        N/A
$$

LMZ740>746-251200-
SOUTHERN LAKE MICHIGAN

STATION/POSITION SKY/WX   TEMP    WIND        PRES    VSBY  WAVE
                          AIR SEA DIR/SP/G                  HT/PER
                          (F)     (DEG/KT/KT) (MB)    (MI)  (FT/S)
WAUKEGAN HARBOR            32      30/ 24/ 28   N/A
HARRISON CRIB              33     350/  5/  6   N/A
BURNHAM HARBOR             33     360/  8/  9   N/A
CALUMET HARBOR             33      20/  6/  8   N/A
MICHIGAN CITY              34      70/  4/  5   N/A
$$

ILZ025>027-034>036-040-047-049-050-058-095>099-251200-
WEST-CENTRAL ILLINOIS

CITY           SKY/WX    TMP DP  RH WIND       PRES   REMARKS
QUINCY         LGT RAIN  40  35  83 W5        29.56F
GALESBURG*     DRIZZLE   36  34  93 E3        29.57S
MACOMB*        LGT RAIN  36  35  96 SE7       29.59S WCI  31
JACKSONVILLE*  RAIN      43  38  83 CALM      29.58F
PITTSFIELD*    DRIZZLE   44  36  74 SW7       29.58F
$$

ILZ028>032-037-038-041>044-048-051>054-059>061-251200-
CENTRAL ILLINOIS

CITY           SKY/WX    TMP DP  RH WIND       PRES   REMARKS
PONTIAC        CLOUDY    34  33  96 E7        29.62S WCI  28
BLOOMINGTON    CLOUDY    35  33  92 S5        29.61R WCI  31
DECATUR        CLOUDY    39  33  79 SW8       29.60F WCI  33
PEORIA         LGT RAIN  37  32  82 E3        29.59S
LACON*         DRIZZLE   34  32  92 CALM      29.61R
LINCOLN*       CLOUDY    36  33  88 CALM      29.59F
SPRINGFIELD    CLOUDY    41  34  76 S5        29.59F
TAYLORVILLE    LGT RAIN  37  34  87 SW9       29.60S WCI  31
$$

ILZ033-039-045-046-055>057-062-063-251200-
EAST-CENTRAL ILLINOIS

CITY           SKY/WX    TMP DP  RH WIND       PRES   REMARKS
CHAMPAIGN      CLOUDY    35  32  88 SE6       29.60F WCI  30
DANVILLE*      MOCLDY    34  32  92 SE5       29.60F WCI  30
RANTOUL*       CLOUDY    35  33  93 SE5       29.61S WCI  31
MATTOON        CLOUDY    37  31  78 S9        29.60F WCI  30
PARIS*         CLOUDY    36  33  90 SE6       29.63F WCI  31
$$

ILZ079-100>102-251200-
SOUTHWEST ILLINOIS

CITY           SKY/WX    TMP DP  RH WIND       PRES   REMARKS
ALTON          DRIZZLE   44  39  84 SW6       29.61F
BELLEVILLE     LGT RAIN  42  41  99 SW5       29.61F
CAHOKIA*       LGT RAIN  45  42  89 S3        29.62F
SPARTA*        DRIZZLE   45  33  65 S7        29.65F
$$

ILZ064>066-069>071-074>076-080>082-084>086-088>090-092>094-251200-
SOUTH-CENTRAL ILLINOIS

CITY           SKY/WX    TMP DP  RH WIND       PRES   REMARKS
CARBONDALE     CLOUDY    42  31  64 S9        29.66F
CAIRO*         MOCLDY    41  33  74 S6        29.72S
EFFINGHAM*     CLOUDY    43  30  60 S8        29.64F
MARION         CLOUDY    41  32  70 S8        29.68F
MT. VERNON     CLOUDY    39  34  81 SW7       29.66S WCI  34
CENTRALIA*     RAIN      42  35  75 S9        29.64R
SALEM*         LGT RAIN  46  38  75 W7        29.63F
METROPOLIS*    CLOUDY    42  34  74 S7        29.71S
$$

ILZ067-068-072-073-078-083-087-091-251200-
SOUTHEAST ILLINOIS

CITY           SKY/WX    TMP DP  RH WIND       PRES   REMARKS
LAWRENCEVILLE  CLOUDY    38  33  82 S9        29.67F WCI  31
FLORA*         CLOUDY    39  33  78 S6        29.64F WCI  35
FAIRFIELD*     CLOUDY    40  34  81 S6        29.64F
HARRISBURG*    CLOUDY    43  32  65 SW9       29.69F
ROBINSON*      CLOUDY    37  33  82 SE3       29.65F
CARMI*         CLOUDY    39  36  87 S7        29.67F WCI  34
$$

ABBREVIATIONS USED IN REMARKS
   TC - TEMPERATURE IN CELSIUS
  WCI - WIND CHILL INDEX
   HX - HEAT INDEX
  VSB - VISIBILITY
$$




USA.gov is the U.S. government's official web portal to all federal, state and local government web resources and services.